#timestamp,LO_Frequency,Hit,StdDev 
1680206415.7,286047003.5,N
1680206435.6,286047005.7,N
1680206455.4,286047003.4,N
1680206475.2,286047003.1,N
1680206495.1,286047004.4,N
1680206496.0,286047004.4,N
1680206515.8,286047003.7,N
1680206535.6,286047003.4,N
1680206555.5,286047005.6,N
1680206575.3,286047003.8,N
1680206595.2,286047001.6,N
1680206615.9,286047001.8,N
1680206635.7,286047001.7,N
1680206655.6,286047001.6,N
1680206675.4,286047002.6,N
1680206695.2,286046999.9,N
1680206715.1,286047000.7,N
1680206716.0,286047000.7,N
1680206735.8,286046999.9,N
1680206755.7,286047002.8,N
1680206775.5,286047002.7,N
1680206795.3,286047000.0,N
1680206815.2,286046999.8,N
1680206835.0,286047001.3,N
1680206835.9,286047001.3,N
1680206855.7,286047001.9,N
1680206875.6,286047001.8,N
1680206895.4,286047001.5,N
1680206915.3,286047002.1,N
1680206935.1,286047004.2,N
1680206955.8,286047004.3,N
1680206975.7,286047004.4,N
1680206995.5,286047003.5,N
1680207015.4,286047001.5,N
1680207035.2,286047001.3,N
1680207055.0,286047001.8,N
1680207055.9,286047001.8,N
1680207075.8,286047002.8,N
1680207095.6,286047002.6,N
1680207115.4,286047002.7,N
1680207135.3,286047000.5,N
1680207155.1,286047001.5,N
1680207175.9,286047002.6,N
1680207195.7,286047000.6,N
1680207215.5,286046999.3,N
1680207235.4,286047000.7,N
1680207255.2,286047001.3,N
1680207275.0,286046999.9,N
1680207275.9,286046999.9,N
1680207295.8,286046999.8,N
1680207315.6,286047000.0,N
1680207335.5,286047002.6,N
1680207355.3,286047000.1,N
1680207375.1,286047000.0,N
1680207395.9,286047002.7,N
1680207415.7,286047001.9,N
1680207435.5,286047000.3,N
1680207455.4,286047000.6,N
1680207475.2,286047002.1,N
1680207495.1,286047000.2,N
1680207496.0,286047000.2,N
1680207515.8,286046998.6,N
1680207535.6,286047001.0,N
1680207555.5,286047000.7,N
1680207575.3,286047011.9,Y
1680207595.1,286047000.0,P
1680207615.9,286046998.4,P
1680207635.7,286046998.4,N
1680207655.6,286047000.5,N
1680207675.4,286046998.5,N
1680207695.2,286047001.1,N
1680207715.1,286047001.1,N
1680207716.0,286047001.1,N
1680207735.8,286046999.2,N
1680207755.7,286046995.5,Y
1680207775.5,286046994.9,P
1680207795.3,286046995.6,N
1680207815.2,286046996.3,N
1680207835.9,286046994.2,Y
1680207855.7,286046999.0,P
1680207875.6,286046999.3,N
1680207895.4,286046998.8,N
1680207915.3,286046998.9,N
1680207935.1,286046998.2,N
1680207936.0,286046998.2,N
1680207955.8,286046998.2,N
1680207975.7,286046999.5,N
1680207995.5,286046998.7,N
1680208015.3,286046999.0,N
1680208035.2,286046999.0,N
1680208055.0,286046997.2,Y
1680208055.9,286046997.2,P
1680208075.8,286046999.5,N
1680208095.6,286046999.2,N
1680208115.4,286047001.0,N
1680208135.3,286046997.0,N
1680208155.1,286046995.6,Y
1680208175.8,286046996.6,P
1680208195.7,286047000.3,N
1680208215.5,286046999.4,N
1680208235.4,286046996.7,N
1680208255.2,286046998.0,N
1680208275.0,286046997.3,N
1680208275.9,286046997.3,N
1680208295.8,286046997.4,N
1680208315.6,286046997.8,N
1680208335.4,286046997.5,N
1680208355.3,286046999.1,N
1680208375.1,286046999.5,N
1680208395.9,286046997.1,N
1680208415.7,286046995.3,Y
1680208435.5,286047000.7,P
1680208455.4,286047000.7,N
1680208475.2,286046997.0,N
1680208495.0,286046997.7,N
1680208495.9,286046997.7,N
1680208515.8,286046998.3,N
1680208535.6,286047000.9,N
1680208555.5,286046998.8,N
1680208575.3,286046998.3,N
1680208595.1,286046998.3,N
1680208615.9,286046998.9,N
1680208635.7,286046999.1,N
1680208655.5,286046999.0,N
1680208675.4,286046998.1,N
1680208695.2,286046998.9,N
1680208715.1,286046999.5,N
1680208716.0,286046999.5,N
1680208735.8,286046999.2,N
1680208755.6,286046998.6,N
1680208775.5,286046998.3,N
1680208795.3,286047000.7,N
1680208815.1,286047000.9,N
1680208835.9,286047000.9,N
1680208855.7,286047000.8,N
1680208875.6,286046998.5,N
1680208895.4,286046997.0,N
1680208915.2,286046997.4,N
1680208935.1,286047001.2,N
1680208936.0,286047001.2,N
1680208955.8,286046998.9,N
1680208975.6,286046999.0,N
1680208995.5,286046998.6,N
1680209015.3,286046998.6,N
1680209035.2,286046996.5,Y
1680209055.9,286047000.7,P
1680209075.7,286046998.4,N
1680209095.6,286046983.0,P
1680209115.4,286046984.8,N
1680209135.2,286046985.2,N
1680209155.1,286046980.9,N
1680209156.0,286046980.9,N
1680209175.8,286046980.5,N
1680209195.7,286046979.7,N
1680209215.5,286046981.8,N
1680209235.3,286046982.1,N
1680209255.2,286046982.6,N
1680209275.0,286046984.7,N
1680209275.9,286046984.7,N
1680209295.7,286046982.9,N
1680209315.6,286046982.2,N
1680209335.4,286046983.3,N
1680209355.3,286046983.4,N
1680209375.1,286046981.2,N
1680209376.0,286046981.2,Y
1680209395.8,286046998.8,P
1680209415.7,286046996.0,N
1680209435.5,286046999.3,N
1680209455.4,286046998.3,N
1680209475.2,286047000.3,N
1680209495.0,286046999.1,N
1680209495.9,286046999.1,N
1680209515.8,286046996.9,N
1680209535.6,286046996.5,N
1680209555.5,286046999.3,N
1680209575.3,286046998.7,N
1680209595.1,286047000.6,N
1680209615.9,286046997.0,N
1680209635.7,286046999.2,N
1680209655.5,286046999.1,N
1680209675.4,286046997.5,N
1680209695.2,286046997.0,N
1680209715.1,286046996.6,N
1680209716.0,286046996.6,N
1680209735.8,286046995.3,N
1680209755.6,286046998.9,N
1680209775.5,286046996.8,N
1680209795.3,286046996.6,N
1680209815.1,286046997.2,N
1680209835.9,286046996.7,N
1680209855.7,286047000.9,N
1680209875.6,286047000.1,N
1680209895.4,286047000.6,N
1680209915.2,286047001.1,N
1680209935.1,286046998.3,N
1680209936.0,286046998.3,N
1680209955.8,286046998.9,N
1680209975.6,286046997.0,N
1680209995.5,286046998.6,N
